Time,TemperatureF,DewpointF,PressureIn,WindDirection,WindDirectionDegrees,WindSpeedMPH,WindSpeedGustMPH,Humidity,HourlyPrecipIn,Conditions,Clouds,dailyrainin,SolarRadiationWatts/m^2,SoftwareType,DateUTC
2013-06-13 00:11:00,53.0,16.0,-100.00,SSE,161,1.0,10.0,23,0.00,,,0.00,0.000000,,2013-06-13 07:11:00,
2013-06-13 00:22:00,53.0,16.0,-100.00,SSE,161,1.0,10.0,23,0.00,,,0.00,0.000000,,2013-06-13 07:22:00,
2013-06-13 00:33:00,53.0,16.0,-100.00,SSE,161,1.0,10.0,23,0.00,,,0.00,0.000000,,2013-06-13 07:33:00,
2013-06-13 00:42:00,53.0,16.0,-100.00,SSE,161,1.0,10.0,23,0.00,,,0.00,0.000000,,2013-06-13 07:42:00,
2013-06-13 01:11:00,56.0,17.0,-100.00,South,191,5.0,12.0,21,0.00,,,0.00,0.000000,,2013-06-13 08:11:00,
2013-06-13 01:22:00,56.0,17.0,-100.00,South,191,5.0,12.0,21,0.00,,,0.00,0.000000,,2013-06-13 08:22:00,
2013-06-13 01:32:00,56.0,17.0,-100.00,South,191,5.0,12.0,21,0.00,,,0.00,0.000000,,2013-06-13 08:32:00,
2013-06-13 01:42:00,56.0,17.0,-100.00,South,191,5.0,12.0,21,0.00,,,0.00,0.000000,,2013-06-13 08:42:00,
2013-06-13 02:11:00,55.0,19.0,-100.00,SSW,192,3.0,20.0,24,0.00,,,0.00,0.000000,,2013-06-13 09:11:00,
2013-06-13 02:22:00,55.0,19.0,-100.00,SSW,192,3.0,20.0,24,0.00,,,0.00,0.000000,,2013-06-13 09:22:00,
2013-06-13 02:32:00,55.0,19.0,-100.00,SSW,192,3.0,20.0,24,0.00,,,0.00,0.000000,,2013-06-13 09:32:00,
2013-06-13 02:42:00,55.0,19.0,-100.00,SSW,192,3.0,20.0,24,0.00,,,0.00,0.000000,,2013-06-13 09:42:00,
2013-06-13 03:11:00,54.0,13.0,-100.00,South,188,8.0,19.0,19,0.00,,,0.00,0.000000,,2013-06-13 10:11:00,
2013-06-13 03:22:00,54.0,13.0,-100.00,South,188,8.0,19.0,19,0.00,,,0.00,0.000000,,2013-06-13 10:22:00,
2013-06-13 03:33:00,54.0,13.0,-100.00,South,188,8.0,19.0,19,0.00,,,0.00,0.000000,,2013-06-13 10:33:00,
2013-06-13 03:42:00,54.0,13.0,-100.00,South,188,8.0,19.0,19,0.00,,,0.00,0.000000,,2013-06-13 10:42:00,
2013-06-13 04:11:00,49.0,10.0,-100.00,SSE,149,2.0,17.0,20,0.00,,,0.00,0.000000,,2013-06-13 11:11:00,
2013-06-13 04:23:00,49.0,10.0,-100.00,SSE,149,2.0,17.0,20,0.00,,,0.00,0.000000,,2013-06-13 11:23:00,
2013-06-13 04:32:00,49.0,10.0,-100.00,SSE,149,2.0,17.0,20,0.00,,,0.00,0.000000,,2013-06-13 11:32:00,
2013-06-13 04:42:00,49.0,10.0,-100.00,SSE,149,2.0,17.0,20,0.00,,,0.00,0.000000,,2013-06-13 11:42:00,
2013-06-13 05:11:00,50.0,4.0,-100.00,SSE,166,2.0,8.0,15,0.00,,,0.00,0.000000,,2013-06-13 12:11:00,
2013-06-13 05:22:00,50.0,4.0,-100.00,SSE,166,2.0,8.0,15,0.00,,,0.00,0.000000,,2013-06-13 12:22:00,
2013-06-13 05:34:00,50.0,4.0,-100.00,SSE,166,2.0,8.0,15,0.00,,,0.00,0.000000,,2013-06-13 12:34:00,
2013-06-13 05:42:00,50.0,4.0,-100.00,SSE,166,2.0,8.0,15,0.00,,,0.00,0.000000,,2013-06-13 12:42:00,
2013-06-13 06:11:00,51.0,2.0,-100.00,South,180,4.0,16.0,13,0.00,,,0.00,1.000000,,2013-06-13 13:11:00,
2013-06-13 06:43:00,51.0,2.0,-100.00,South,180,4.0,16.0,13,0.00,,,0.00,1.000000,,2013-06-13 13:43:00,
2013-06-13 07:11:00,49.0,9.0,-100.00,SE,140,0.0,11.0,19,0.00,,,0.00,19.000000,,2013-06-13 14:11:00,
2013-06-13 07:22:00,49.0,9.0,-100.00,SE,140,0.0,11.0,19,0.00,,,0.00,19.000000,,2013-06-13 14:22:00,
2013-06-13 07:33:00,49.0,9.0,-100.00,SE,140,0.0,11.0,19,0.00,,,0.00,19.000000,,2013-06-13 14:33:00,
2013-06-13 07:43:00,49.0,9.0,-100.00,SE,140,0.0,11.0,19,0.00,,,0.00,19.000000,,2013-06-13 14:43:00,
2013-06-13 08:12:00,57.0,1.0,-100.00,East,87,6.0,25.0,10,0.00,,,0.00,41.000000,,2013-06-13 15:12:00,
2013-06-13 09:11:00,60.0,-16.0,-100.00,SW,224,13.0,26.0,4,0.00,,,0.00,312.000000,,2013-06-13 16:11:00,
2013-06-13 10:11:00,63.0,-27.0,-100.00,SSW,211,11.0,26.0,2,0.00,,,0.00,661.000000,,2013-06-13 17:11:00,
2013-06-13 11:11:00,67.0,-16.0,-100.00,SW,217,10.0,23.0,3,0.00,,,0.00,961.000000,,2013-06-13 18:11:00,
2013-06-13 12:11:00,68.0,-23.0,-100.00,SW,214,11.0,25.0,2,0.00,,,0.00,1100.000000,,2013-06-13 19:11:00,
2013-06-13 13:11:00,70.0,-35.0,-100.00,NW,304,6.0,22.0,1,0.00,,,0.00,1177.000000,,2013-06-13 20:11:00,
2013-06-13 15:11:00,73.0,-7.0,-100.00,SSW,209,8.0,25.0,4,0.00,,,0.00,1136.000000,,2013-06-13 22:11:00,
2013-06-13 16:11:00,70.0,3.0,-100.00,SW,223,10.0,24.0,7,0.00,,,0.00,1021.000000,,2013-06-13 23:11:00,
2013-06-13 16:22:00,70.0,3.0,-100.00,SW,223,10.0,24.0,7,0.00,,,0.00,1021.000000,,2013-06-13 23:22:00,
2013-06-13 16:32:00,70.0,3.0,-100.00,SW,223,10.0,24.0,7,0.00,,,0.00,1021.000000,,2013-06-13 23:32:00,
2013-06-13 16:43:00,70.0,3.0,-100.00,SW,223,10.0,24.0,7,0.00,,,0.00,1021.000000,,2013-06-13 23:43:00,
2013-06-13 17:11:00,73.0,11.0,-100.00,SSW,203,7.0,22.0,9,0.00,,,0.00,854.000000,,2013-06-14 00:11:00,
2013-06-13 17:22:00,73.0,11.0,-100.00,SSW,203,7.0,22.0,9,0.00,,,0.00,854.000000,,2013-06-14 00:22:00,
2013-06-13 17:33:00,73.0,11.0,-100.00,SSW,203,7.0,22.0,9,0.00,,,0.00,854.000000,,2013-06-14 00:33:00,
2013-06-13 17:43:00,73.0,11.0,-100.00,SSW,203,7.0,22.0,9,0.00,,,0.00,854.000000,,2013-06-14 00:43:00,
2013-06-13 18:11:00,72.0,17.0,-100.00,South,182,6.0,19.0,12,0.00,,,0.00,646.000000,,2013-06-14 01:11:00,
2013-06-13 18:22:00,72.0,17.0,-100.00,South,182,6.0,19.0,12,0.00,,,0.00,646.000000,,2013-06-14 01:22:00,
2013-06-13 18:32:00,72.0,17.0,-100.00,South,182,6.0,19.0,12,0.00,,,0.00,646.000000,,2013-06-14 01:32:00,
2013-06-13 18:43:00,72.0,17.0,-100.00,South,182,6.0,19.0,12,0.00,,,0.00,646.000000,,2013-06-14 01:43:00,
2013-06-13 19:22:00,69.0,12.0,-100.00,SSW,195,5.0,16.0,11,0.00,,,0.00,425.000000,,2013-06-14 02:22:00,
2013-06-13 19:32:00,69.0,12.0,-100.00,SSW,195,5.0,16.0,11,0.00,,,0.00,425.000000,,2013-06-14 02:32:00,
2013-06-13 19:43:00,69.0,12.0,-100.00,SSW,195,5.0,16.0,11,0.00,,,0.00,425.000000,,2013-06-14 02:43:00,
2013-06-13 20:11:00,65.0,11.0,-100.00,SW,223,6.0,13.0,12,0.00,,,0.00,187.000000,,2013-06-14 03:11:00,
2013-06-13 20:22:00,65.0,11.0,-100.00,SW,223,6.0,13.0,12,0.00,,,0.00,187.000000,,2013-06-14 03:22:00,
2013-06-13 20:34:00,65.0,11.0,-100.00,SW,223,6.0,13.0,12,0.00,,,0.00,187.000000,,2013-06-14 03:34:00,
2013-06-13 20:43:00,65.0,11.0,-100.00,SW,223,6.0,13.0,12,0.00,,,0.00,187.000000,,2013-06-14 03:43:00,
2013-06-13 21:12:00,59.0,14.0,-100.00,SSE,160,1.0,10.0,17,0.00,,,0.00,8.000000,,2013-06-14 04:12:00,
2013-06-13 21:22:00,59.0,14.0,-100.00,SSE,160,1.0,10.0,17,0.00,,,0.00,8.000000,,2013-06-14 04:22:00,
2013-06-13 21:33:00,59.0,14.0,-100.00,SSE,160,1.0,10.0,17,0.00,,,0.00,8.000000,,2013-06-14 04:33:00,
2013-06-13 21:43:00,59.0,14.0,-100.00,SSE,160,1.0,10.0,17,0.00,,,0.00,8.000000,,2013-06-14 04:43:00,
2013-06-13 22:11:00,51.0,11.0,-100.00,South,183,2.0,6.0,20,0.00,,,0.00,0.000000,,2013-06-14 05:11:00,
2013-06-13 22:22:00,51.0,11.0,-100.00,South,183,2.0,6.0,20,0.00,,,0.00,0.000000,,2013-06-14 05:22:00,
2013-06-13 22:33:00,51.0,11.0,-100.00,South,183,2.0,6.0,20,0.00,,,0.00,0.000000,,2013-06-14 05:33:00,
2013-06-13 22:43:00,51.0,11.0,-100.00,South,183,2.0,6.0,20,0.00,,,0.00,0.000000,,2013-06-14 05:43:00,
2013-06-13 23:12:00,49.0,9.0,-100.00,SE,126,1.0,7.0,19,0.00,,,0.00,0.000000,,2013-06-14 06:12:00,
2013-06-13 23:22:00,49.0,9.0,-100.00,SE,126,1.0,7.0,19,0.00,,,0.00,0.000000,,2013-06-14 06:22:00,